Weather History for Goodland, KS

Change the Weather History Date:

Friday, May 11, 2012

  Actual Average Record
Temperature  
Mean Temperature 53 °F 58 °F  
Max Temperature 65 °F 71 °F 99 °F (1962)
Min Temperature 40 °F 44 °F 26 °F (1918)
Degree Days  
Heating Degree Days 12 8  
Month to date heating degree days 50 105  
Since 1 July heating degree days 4969 5760  
Cooling Degree Days 0 1  
Month to date cooling degree days 20 9  
Year to date cooling degree days 37 13  
Growing Degree Days 2 (Base 50)    
Moisture  
Dew Point 35 °F    
Average Humidity 53    
Maximum Humidity 76    
Minimum Humidity 30    
Precipitation  
Precipitation 0.00 in 0.09 in 0.62 in (1930)
Month to date precipitation 0.06 0.86  
Year to date precipitation 4.03 4.39  
Snow  
Snow 0.00 in 0.10 in - ()
Month to date snowfall 0.0 0.4  
Since 1 July snowfall 17.1 35.4  
Snow Depth 0.00 in    
Sea Level Pressure  
Sea Level Pressure 30.10 in    
Wind  
Wind Speed 15 mph (NNE)    
Max Wind Speed 26 mph    
Max Gust Speed 36 mph    
Visibility 10 miles    
Events      
T = Trace of Precipitation, MM = Missing Value Source: NWS Daily Summary

Daily Weather History Graph

Daily Weather History Graph

Search for Another Location

Airport:

Trip Planner

Search our weather history database for the weather conditions in past years. The results will help you decide how hot, cold, wet, or windy it might be!

Date:

Astronomy

May. 11, 2012 Rise Set
Actual Time 5:36 AM MDT 7:50 PM MDT
Civil Twilight 5:06 AM MDT 8:20 PM MDT
Nautical Twilight 4:29 AM MDT 8:57 PM MDT
Astronomical Twilight 3:49 AM MDT 9:37 PM MDT
Moon 12:31 AM MDT (5/11) 11:10 AM MDT (5/11)
Length of Visible Light 15h 14m
Length of Day
14h 14m
Waning Gibbous, 62% of the Moon is Illuminated
May 11
Waning Gibbous
May 12
Last Quarter
May 20
New
May 28
First Quarter
Jun 4
Full

Hourly Weather History & Observations

Time (MDT) Temp. Windchill Dew Point Humidity Pressure Visibility Wind Dir Wind Speed Gust Speed Precip Events Conditions
12:53 AM 60.1 °F - 39.9 °F 47% 29.74 in 10.0 mi South 16.1 mph - N/A   Clear
1:53 AM 55.9 °F - 41.0 °F 57% 29.76 in 10.0 mi South 12.7 mph - N/A   Clear
2:53 AM 55.0 °F - 42.1 °F 62% 29.82 in 10.0 mi WNW 9.2 mph 17.3 mph N/A   Clear
3:53 AM 50.0 °F - 42.1 °F 74% 29.85 in 10.0 mi East 3.5 mph - N/A   Clear
4:33 AM 50.0 °F - 41.0 °F 71% 30.01 in 10.0 mi NNE 19.6 mph 32.2 mph N/A   Clear
4:53 AM 50.0 °F - 41.0 °F 71% 29.91 in 10.0 mi NNE 20.7 mph 29.9 mph N/A   Clear
5:53 AM 46.9 °F - 39.0 °F 74% 29.98 in 10.0 mi North 18.4 mph 24.2 mph N/A   Clear
6:53 AM 48.0 °F - 36.0 °F 63% 30.03 in 10.0 mi NNE 20.7 mph 32.2 mph N/A   Clear
7:53 AM 48.9 °F - 36.0 °F 61% 30.07 in 10.0 mi NNE 21.9 mph 32.2 mph N/A   Clear
8:53 AM 52.0 °F - 35.1 °F 53% 30.10 in 10.0 mi NNE 23.0 mph 31.1 mph N/A   Clear
9:53 AM 55.0 °F - 30.9 °F 40% 30.12 in - NE 23.0 mph 31.1 mph N/A   Clear
10:53 AM 57.9 °F - 33.1 °F 39% 30.15 in - NNE 18.4 mph 29.9 mph N/A   Scattered Clouds
11:53 AM 60.1 °F - 33.1 °F 36% 30.16 in 10.0 mi NNE 20.7 mph 26.5 mph N/A   Overcast
12:53 PM 62.1 °F - 30.0 °F 30% 30.15 in 10.0 mi NNE 19.6 mph 27.6 mph N/A   Scattered Clouds
1:53 PM 62.1 °F - 30.9 °F 31% 30.16 in 10.0 mi NNE 16.1 mph 24.2 mph N/A   Partly Cloudy
2:53 PM 63.0 °F - 32.0 °F 31% 30.15 in 10.0 mi NNE 12.7 mph 21.9 mph N/A   Clear
3:53 PM 64.0 °F - 33.1 °F 31% 30.15 in 10.0 mi NNE 13.8 mph 18.4 mph N/A   Clear
4:53 PM 63.0 °F - 34.0 °F 34% 30.16 in 10.0 mi NNE 15.0 mph 23.0 mph N/A   Clear
5:53 PM 60.1 °F - 33.1 °F 36% 30.18 in 10.0 mi NNE 11.5 mph 20.7 mph N/A   Mostly Cloudy
6:53 PM 57.0 °F - 32.0 °F 39% 30.19 in 10.0 mi NNE 12.7 mph - N/A   Mostly Cloudy
7:53 PM 52.0 °F - 30.9 °F 45% 30.24 in 10.0 mi NNE 12.7 mph - N/A   Partly Cloudy
8:53 PM 46.0 °F 38.5 °F 30.9 °F 56% 30.27 in 10.0 mi NNE 19.6 mph 24.2 mph N/A   Scattered Clouds
9:53 PM 42.1 °F 35.2 °F 30.0 °F 62% 30.30 in 10.0 mi NNE 12.7 mph - N/A   Mostly Cloudy
10:53 PM 39.9 °F 34.5 °F 30.0 °F 68% 30.32 in 10.0 mi North 8.1 mph - N/A   Clear
11:53 PM 41.0 °F 34.3 °F 30.9 °F 67% 30.32 in 10.0 mi NNE 11.5 mph - N/A   Clear